TimeCST,TemperatureF,Dew PointF,Humidity,Sea Level PressureIn,VisibilityMPH,Wind Direction,Wind SpeedMPH,Gust SpeedMPH,PrecipitationIn,Events,Conditions,WindDirDegrees,DateUTC
12:15 AM,71.6,60.8,69,29.56,9.0,SSW,17.3,28.8,N/A,Thunderstorm,Mostly Cloudy,200,2013-01-30 06:15:00
12:35 AM,69.8,62.6,78,29.57,7.0,South,12.7,33.4,N/A,Rain,Light Rain,190,2013-01-30 06:35:00
12:55 AM,68.0,62.6,83,29.60,4.0,SW,23.0,36.8,0.01,Rain-Thunderstorm,Light Thunderstorms and Rain,220,2013-01-30 06:55:00
1:15 AM,59.0,55.4,88,29.65,1.0,WNW,11.5,26.5,0.28,Rain,Heavy Rain,290,2013-01-30 07:15:00
1:35 AM,55.4,53.6,94,29.66,1.5,WNW,8.1,17.3,0.67,Rain-Thunderstorm,Heavy Rain,300,2013-01-30 07:35:00
1:55 AM,55.4,53.6,94,29.65,3.0,NW,4.6,-,0.74,Rain,Light Rain,320,2013-01-30 07:55:00
2:15 AM,55.4,53.6,94,29.65,5.0,NW,8.1,18.4,N/A,Rain,Light Rain,310,2013-01-30 08:15:00
2:35 AM,55.4,53.6,94,29.66,4.0,WNW,6.9,-,0.03,Rain,Light Rain,300,2013-01-30 08:35:00
2:55 AM,55.4,53.6,94,29.66,1.8,NW,4.6,-,0.13,Rain,Heavy Rain,320,2013-01-30 08:55:00
3:15 AM,53.6,53.6,100,29.66,2.5,NW,3.5,-,0.04,Rain,Light Rain,310,2013-01-30 09:15:00
3:35 AM,53.6,53.6,100,29.66,2.0,WNW,5.8,-,0.15,Rain,Rain,290,2013-01-30 09:35:00
3:55 AM,53.6,53.6,100,29.66,2.0,WSW,4.6,-,0.27,Rain,Rain,250,2013-01-30 09:55:00
4:15 AM,53.6,51.8,94,29.66,2.5,SW,8.1,-,0.05,Rain,Rain,230,2013-01-30 10:15:00
4:35 AM,53.6,51.8,94,29.64,3.0,SSW,3.5,-,0.11,Rain,Light Rain,200,2013-01-30 10:35:00
4:55 AM,53.6,51.8,94,29.64,4.0,SSW,3.5,-,0.14,Rain,Light Rain,210,2013-01-30 10:55:00
5:15 AM,53.6,51.8,94,29.62,2.5,Calm,Calm,-,0.02,Rain,Light Rain,0,2013-01-30 11:15:00
5:35 AM,53.6,51.8,94,29.59,8.0,Calm,Calm,-,0.02,Rain,Light Rain,0,2013-01-30 11:35:00
5:55 AM,51.8,50.0,94,29.62,10.0,South,4.6,-,0.02,,Mostly Cloudy,190,2013-01-30 11:55:00
6:15 AM,51.8,50.0,94,29.62,10.0,South,4.6,-,N/A,,Mostly Cloudy,190,2013-01-30 12:15:00
6:35 AM,51.8,50.0,94,29.63,10.0,South,4.6,-,N/A,,Mostly Cloudy,190,2013-01-30 12:35:00
6:55 AM,51.8,50.0,94,29.62,10.0,South,3.5,-,N/A,,Overcast,190,2013-01-30 12:55:00
7:15 AM,51.8,50.0,94,29.64,10.0,SSW,6.9,-,N/A,,Overcast,200,2013-01-30 13:15:00
7:55 AM,51.8,50.0,94,29.62,8.0,SSW,6.9,-,N/A,,Scattered Clouds,210,2013-01-30 13:55:00
8:15 AM,51.8,50.0,94,29.64,8.0,SW,10.4,-,N/A,,Partly Cloudy,220,2013-01-30 14:15:00
8:35 AM,53.6,50.0,88,29.62,8.0,WSW,9.2,-,N/A,,Scattered Clouds,240,2013-01-30 14:35:00
9:15 AM,53.6,50.0,88,29.65,7.0,WSW,12.7,18.4,N/A,,Scattered Clouds,240,2013-01-30 15:15:00
9:35 AM,53.6,48.2,82,29.64,8.0,SW,11.5,16.1,N/A,,Partly Cloudy,230,2013-01-30 15:35:00
9:55 AM,53.6,48.2,82,29.63,8.0,WSW,11.5,16.1,N/A,,Partly Cloudy,240,2013-01-30 15:55:00
10:15 AM,53.6,46.4,77,29.65,7.0,West,8.1,18.4,N/A,,Scattered Clouds,260,2013-01-30 16:15:00
10:35 AM,53.6,44.6,72,29.65,8.0,WSW,12.7,19.6,N/A,,Mostly Cloudy,250,2013-01-30 16:35:00
10:55 AM,53.6,44.6,72,29.64,8.0,West,10.4,21.9,N/A,,Partly Cloudy,260,2013-01-30 16:55:00
11:15 AM,53.6,42.8,67,29.63,7.0,West,9.2,24.2,N/A,,Partly Cloudy,270,2013-01-30 17:15:00
12:15 PM,53.6,39.2,58,29.65,9.0,West,11.5,19.6,N/A,,Scattered Clouds,260,2013-01-30 18:15:00
12:35 PM,53.6,39.2,58,29.64,7.0,West,12.7,23.0,N/A,,Scattered Clouds,270,2013-01-30 18:35:00
12:55 PM,53.6,41.0,62,29.65,7.0,West,11.5,21.9,N/A,,Mostly Cloudy,270,2013-01-30 18:55:00
1:15 PM,51.8,39.2,62,29.65,7.0,West,13.8,20.7,N/A,,Mostly Cloudy,270,2013-01-30 19:15:00
1:55 PM,48.2,41.0,76,29.66,3.0,West,13.8,24.2,N/A,Rain,Light Rain,270,2013-01-30 19:55:00
2:15 PM,48.2,37.4,66,29.69,7.0,WNW,18.4,28.8,N/A,,Overcast,300,2013-01-30 20:15:00
2:55 PM,44.6,35.6,71,29.73,4.0,WNW,16.1,24.2,N/A,,Haze,290,2013-01-30 20:55:00
3:15 PM,44.6,32.0,61,29.75,8.0,WNW,11.5,21.9,N/A,,Mostly Cloudy,290,2013-01-30 21:15:00
3:35 PM,44.6,32.0,61,29.75,7.0,WNW,11.5,21.9,N/A,,Mostly Cloudy,300,2013-01-30 21:35:00
3:55 PM,44.6,32.0,61,29.78,8.0,WNW,13.8,27.6,N/A,,Mostly Cloudy,290,2013-01-30 21:55:00
4:55 PM,42.8,30.2,61,29.81,9.0,West,11.5,19.6,N/A,,Mostly Cloudy,280,2013-01-30 22:55:00
5:15 PM,41.0,30.2,65,29.83,8.0,WNW,11.5,21.9,N/A,,Overcast,290,2013-01-30 23:15:00
5:55 PM,41.0,30.2,65,29.86,10.0,WNW,10.4,19.6,N/A,Rain,Light Rain,290,2013-01-30 23:55:00
6:15 PM,41.0,28.4,61,29.88,10.0,WNW,11.5,21.9,N/A,,Overcast,290,2013-01-31 00:15:00
6:55 PM,41.0,26.6,57,29.91,10.0,NW,11.5,17.3,N/A,,Mostly Cloudy,320,2013-01-31 00:55:00
7:15 PM,41.0,26.6,57,29.93,10.0,NNW,16.1,21.9,N/A,,Overcast,330,2013-01-31 01:15:00
7:35 PM,39.2,26.6,61,29.94,10.0,NW,11.5,-,N/A,,Mostly Cloudy,320,2013-01-31 01:35:00
7:55 PM,39.2,24.8,56,29.96,10.0,NW,10.4,17.3,N/A,,Scattered Clouds,320,2013-01-31 01:55:00
8:15 PM,39.2,24.8,56,29.97,10.0,NW,11.5,-,N/A,,Scattered Clouds,320,2013-01-31 02:15:00
8:35 PM,39.2,24.8,56,29.99,10.0,NW,9.2,-,N/A,,Scattered Clouds,320,2013-01-31 02:35:00
8:55 PM,37.4,24.8,60,30.00,10.0,NW,8.1,-,N/A,,Partly Cloudy,320,2013-01-31 02:55:00
9:15 PM,37.4,26.6,65,30.02,10.0,NW,9.2,-,N/A,,Scattered Clouds,310,2013-01-31 03:15:00
9:35 PM,37.4,26.6,65,30.02,10.0,NW,10.4,19.6,N/A,,Scattered Clouds,310,2013-01-31 03:35:00
9:55 PM,37.4,24.8,60,30.03,10.0,NW,10.4,-,N/A,,Scattered Clouds,310,2013-01-31 03:55:00
10:15 PM,37.4,26.6,65,30.04,10.0,WNW,9.2,-,N/A,,Scattered Clouds,290,2013-01-31 04:15:00
10:35 PM,37.4,24.8,60,30.05,10.0,WNW,10.4,21.9,N/A,,Partly Cloudy,290,2013-01-31 04:35:00
10:55 PM,35.6,24.8,65,30.05,10.0,WNW,10.4,16.1,N/A,,Clear,290,2013-01-31 04:55:00
11:15 PM,35.6,23.0,60,30.06,10.0,WNW,12.7,20.7,N/A,,Clear,300,2013-01-31 05:15:00
11:35 PM,35.6,23.0,60,30.07,10.0,NW,11.5,18.4,N/A,,Clear,310,2013-01-31 05:35:00
11:55 PM,35.6,24.8,65,30.07,10.0,NW,10.4,-,N/A,,Clear,310,2013-01-31 05:55:00